Torna al catalogo

CZ-2F R/B

AttivoVLEO
NORAD 67690·ROCKET BODY·🇨🇳 China

Lanciato Feb 7, 2026 da Jiuquan Satellite Launch Center

Loading…

Prossimi Passaggi (prossime 24 ore)

TLE

AggiornatoSource: Space-Track

Epoca: Sep 14, 2026, 22:57 UTC

1 67690U 26024B   26257.95681228  .00022906  00000-0  36009-3 0  9995
2 67690  49.9836 140.7001 0154375 345.5985  14.0602 15.41028549 33813

Traccia CZ-2F R/B in tempo reale con AllMySat

Download on the App Store